This is the latest recevied weather packets stored in our database for station/object W8BS. If no packets are shown the sender has not sent any weather packets the latest 10 day(s).
| Time | Temp. | Humidity | Pressure | Rain* | Wind** | Luminosity | Snow |
|---|---|---|---|---|---|---|---|
| 1777398204 | 15.56° C | 95% | 1015.9 hPa | 0 mm | - | 78 W/m² | - |
| 1777397901 | 16.11° C | 93% | 1015.8 hPa | 0 mm | - | 101 W/m² | - |
| 1777397596 | 16.11° C | 91% | 1015.6 hPa | 0 mm | - | 137 W/m² | - |
| 1777397293 | 16.11° C | 91% | 1015.5 hPa | 0 mm | - | 201 W/m² | - |
| 1777396990 | 16.11° C | 89% | 1015.6 hPa | 0 mm | - | 162 W/m² | - |
| 1777396686 | 16.11° C | 88% | 1015.7 hPa | 0 mm | - | 212 W/m² | - |
| 1777396383 | 16.11° C | 88% | 1015.9 hPa | 0 mm | - | 156 W/m² | - |
| 1777396080 | 16.11° C | 87% | 1015.7 hPa | 0 mm | - | 172 W/m² | - |
| 1777395775 | 16.11° C | 87% | 1015.5 hPa | 0 mm | - | 176 W/m² | - |
| 1777395470 | 16.11° C | 87% | 1016 hPa | 0 mm | - | 199 W/m² | - |
| 1777395168 | 16.11° C | 86% | 1015.7 hPa | 0 mm | - | 134 W/m² | - |
| 1777394865 | 16.67° C | 84% | 1015.8 hPa | 0 mm | - | 133 W/m² | - |
| 1777394561 | 17.22° C | 83% | 1015.8 hPa | 0 mm | - | 115 W/m² | - |
| 1777394258 | 16.67° C | 82% | 1015.7 hPa | 0 mm | - | 112 W/m² | - |
| 1777393954 | 17.22° C | 81% | 1015.5 hPa | 0 mm | - | 115 W/m² | - |
| 1777393653 | 16.67° C | 81% | 1015.7 hPa | 0 mm | - | 132 W/m² | - |
| 1777393349 | 16.67° C | 81% | 1015.5 hPa | 0 mm | - | 122 W/m² | - |
| 1777393045 | 17.22° C | 79% | 1015.5 hPa | 0 mm | - | 92 W/m² | - |
| 1777392741 | 17.22° C | 78% | 1015.4 hPa | 0 mm | - | 76 W/m² | - |
| 1777392438 | 17.78° C | 77% | 1015.4 hPa | 0 mm | - | 103 W/m² | - |
| 1777392134 | 17.78° C | 76% | 1015.4 hPa | 0 mm | - | 118 W/m² | - |
| 1777391829 | 17.78° C | 76% | 1015.3 hPa | 0 mm | - | 193 W/m² | - |
| 1777391524 | 17.78° C | 76% | 1015.1 hPa | 0 mm | - | 186 W/m² | - |
| 1777391221 | 18.33° C | 74% | 1015 hPa | 0 mm | - | 168 W/m² | - |
| 1777390917 | 18.33° C | 74% | 1014.9 hPa | 0 mm | - | 139 W/m² | - |
* Rain latest hour (hover to see other rain measurements)
** Current wind speed in m/s (hover to see current wind gust speed)